• In Portugal
  • List of Countries
  • For 7 days
  • Water Temperature
  • Satellite Maps
  • Weather Map
  • Weather Widgets
  • user-avatar
    Login

    Hourly Weather Cochabamba

    Today, 25 September, Tuesday

    Time Temperature Precipitation Wind Pressure Humidity
    00:00 +14°C° 0 mm 2 mps 555 mmHg 70%
    01:00 +14°C° 0 mm 2 mps 554 mmHg 70%
    02:00 +14°C° 0 mm 2 mps 554 mmHg 71%
    03:00 +14°C° 0 mm 2 mps 554 mmHg 71%
    04:00 +14°C° 0 mm 2 mps 554 mmHg 72%
    05:00 +13°C° 0 mm 2 mps 554 mmHg 72%
    06:00 +14°C° 0.2 mm 2 mps 554 mmHg 68%
    07:00 +15°C° 0.2 mm 2 mps 555 mmHg 65%
    08:00 +16°C° 0.2 mm 2 mps 556 mmHg 61%
    09:00 +17°C° 0.2 mm 2 mps 556 mmHg 56%
    10:00 +19°C° 0.2 mm 3 mps 557 mmHg 51%
    11:00 +20°C° 0.2 mm 3 mps 557 mmHg 46%
    12:00 +20°C° 0.3 mm 4 mps 556 mmHg 46%
    13:00 +21°C° 0.3 mm 5 mps 556 mmHg 47%
    14:00 +21°C° 0.3 mm 5 mps 555 mmHg 47%
    15:00 +20°C° 0.4 mm 5 mps 555 mmHg 50%
    16:00 +20°C° 0.4 mm 5 mps 554 mmHg 53%
    17:00 +19°C° 0.4 mm 5 mps 554 mmHg 56%
    18:00 +18°C° 0.3 mm 4 mps 554 mmHg 60%
    19:00 +17°C° 0.3 mm 4 mps 554 mmHg 64%
    20:00 +16°C° 0.3 mm 3 mps 554 mmHg 69%
    21:00 +16°C° 0.3 mm 3 mps 554 mmHg 69%
    22:00 +14°C° 0.3 mm 3 mps 554 mmHg 70%
    23:00 +14°C° 0.3 mm 3 mps 554 mmHg 71%

    Tomorrow, 26 September, Wednesday

    Time Temperature Precipitation Wind Pressure Humidity
    00:00 +15°C° 0.3 mm 2 mps 554 mmHg 71%
    01:00 +14°C° 0.3 mm 2 mps 553 mmHg 71%
    02:00 +14°C° 0.3 mm 2 mps 553 mmHg 72%
    03:00 +14°C° 0.3 mm 2 mps 553 mmHg 72%
    04:00 +14°C° 0.3 mm 2 mps 553 mmHg 73%
    05:00 +14°C° 0.3 mm 2 mps 553 mmHg 73%
    06:00 +15°C° 0.2 mm 2 mps 554 mmHg 69%
    07:00 +16°C° 0.2 mm 2 mps 554 mmHg 64%
    08:00 +18°C° 0.2 mm 1 mps 555 mmHg 60%
    09:00 +18°C° 0.4 mm 2 mps 556 mmHg 54%
    10:00 +19°C° 0.4 mm 2 mps 557 mmHg 48%
    11:00 +20°C° 0.4 mm 3 mps 557 mmHg 42%
    12:00 +21°C° 0.6 mm 3 mps 556 mmHg 43%
    13:00 +21°C° 0.6 mm 4 mps 556 mmHg 44%
    14:00 +21°C° 0.6 mm 4 mps 555 mmHg 44%
    15:00 +20°C° 1.1 mm 4 mps 554 mmHg 48%
    16:00 +19°C° 1.1 mm 3 mps 554 mmHg 52%
    17:00 +19°C° 1.1 mm 3 mps 553 mmHg 55%
    18:00 +18°C° 1 mm 3 mps 553 mmHg 58%
    19:00 +17°C° 1 mm 3 mps 553 mmHg 62%
    20:00 +16°C° 1 mm 2 mps 553 mmHg 65%
    21:00 +16°C° 0.3 mm 2 mps 554 mmHg 66%
    22:00 +16°C° 0.3 mm 2 mps 554 mmHg 68%
    23:00 +15°C° 0.3 mm 2 mps 554 mmHg 69%

    Day after tomorrow, 27 September, Thursday

    Time Temperature Precipitation Wind Pressure Humidity
    00:00 +15°C° 0.1 mm 2 mps 554 mmHg 70%
    01:00 +15°C° 0.1 mm 2 mps 554 mmHg 71%
    02:00 +14°C° 0.1 mm 1 mps 553 mmHg 72%
    03:00 +14°C° 0.1 mm 1 mps 553 mmHg 72%
    04:00 +14°C° 0.1 mm 1 mps 553 mmHg 72%
    05:00 +14°C° 0.1 mm 1 mps 553 mmHg 73%
    06:00 +15°C° 0.1 mm 1 mps 554 mmHg 68%
    07:00 +16°C° 0.1 mm 1 mps 555 mmHg 64%
    08:00 +18°C° 0.1 mm 1 mps 555 mmHg 60%
    09:00 +19°C° 0.1 mm 1 mps 556 mmHg 54%
    10:00 +19°C° 0.1 mm 2 mps 557 mmHg 48%
    11:00 +20°C° 0.1 mm 2 mps 557 mmHg 42%
    12:00 +21°C° 0.7 mm 3 mps 556 mmHg 43%
    13:00 +21°C° 0.7 mm 3 mps 556 mmHg 45%
    14:00 +21°C° 0.7 mm 4 mps 555 mmHg 46%
    15:00 +20°C° 2.4 mm 4 mps 554 mmHg 51%
    16:00 +19°C° 2.4 mm 4 mps 553 mmHg 56%
    17:00 +18°C° 2.4 mm 4 mps 553 mmHg 61%
    18:00 +17°C° 3 mm 4 mps 553 mmHg 64%
    19:00 +16°C° 3 mm 3 mps 554 mmHg 68%
    20:00 +14°C° 3 mm 3 mps 554 mmHg 71%
    21:00 +15°C° 0.9 mm 2 mps 554 mmHg 71%
    22:00 +15°C° 0.9 mm 2 mps 555 mmHg 71%
    23:00 +15°C° 0.9 mm 1 mps 555 mmHg 71%

    28 September, Friday

    Time Temperature Precipitation Wind Pressure Humidity
    00:00 +15°C° 0.5 mm 1 mps 555 mmHg 71%
    01:00 +14°C° 0.5 mm 2 mps 555 mmHg 70%
    02:00 +14°C° 0.5 mm 2 mps 554 mmHg 70%
    03:00 +14°C° 0.4 mm 2 mps 554 mmHg 70%
    04:00 +14°C° 0.4 mm 2 mps 554 mmHg 70%
    05:00 +14°C° 0.4 mm 2 mps 554 mmHg 70%
    06:00 +15°C° 0.1 mm 2 mps 554 mmHg 68%
    07:00 +15°C° 0.1 mm 2 mps 555 mmHg 65%
    08:00 +16°C° 0.1 mm 2 mps 556 mmHg 62%
    09:00 +17°C° 0.1 mm 2 mps 556 mmHg 58%
    10:00 +18°C° 0.1 mm 3 mps 557 mmHg 54%
    11:00 +20°C° 0.1 mm 3 mps 557 mmHg 51%
    12:00 +20°C° 0.8 mm 3 mps 557 mmHg 50%
    13:00 +20°C° 0.8 mm 4 mps 556 mmHg 50%
    14:00 +21°C° 0.8 mm 4 mps 555 mmHg 50%
    15:00 +20°C° 0.7 mm 4 mps 555 mmHg 53%
    16:00 +19°C° 0.7 mm 4 mps 554 mmHg 56%
    17:00 +19°C° 0.7 mm 4 mps 554 mmHg 59%
    18:00 +18°C° 0.6 mm 4 mps 554 mmHg 63%
    19:00 +17°C° 0.6 mm 3 mps 554 mmHg 66%
    20:00 +16°C° 0.6 mm 2 mps 554 mmHg 70%
    21:00 +16°C° 0.3 mm 2 mps 554 mmHg 71%
    22:00 +15°C° 0.3 mm 2 mps 554 mmHg 71%
    23:00 +15°C° 0.3 mm 2 mps 555 mmHg 71%

    29 September, Saturday

    Time Temperature Precipitation Wind Pressure Humidity
    00:00 +15°C° 0.1 mm 2 mps 554 mmHg 71%
    01:00 +14°C° 0.1 mm 2 mps 554 mmHg 71%
    02:00 +14°C° 0.1 mm 2 mps 553 mmHg 72%
    03:00 +13°C° 0.1 mm 2 mps 553 mmHg 72%
    04:00 +13°C° 0.1 mm 2 mps 553 mmHg 72%
    05:00 +13°C° 0.1 mm 2 mps 553 mmHg 72%
    06:00 +14°C° 0 mm 2 mps 554 mmHg 65%
    07:00 +16°C° 0 mm 2 mps 555 mmHg 57%
    08:00 +17°C° 0 mm 2 mps 556 mmHg 50%
    09:00 +19°C° 0 mm 2 mps 557 mmHg 43%
    10:00 +21°C° 0 mm 2 mps 557 mmHg 37%
    11:00 +23°C° 0 mm 2 mps 558 mmHg 30%
    12:00 +24°C° 0.3 mm 3 mps 557 mmHg 31%
    13:00 +24°C° 0.3 mm 3 mps 556 mmHg 31%
    14:00 +25°C° 0.3 mm 3 mps 556 mmHg 32%
    15:00 +23°C° 0.7 mm 4 mps 555 mmHg 36%
    16:00 +22°C° 0.7 mm 4 mps 555 mmHg 41%
    17:00 +22°C° 0.7 mm 5 mps 554 mmHg 45%
    18:00 +20°C° 0.3 mm 4 mps 554 mmHg 53%
    19:00 +19°C° 0.3 mm 4 mps 554 mmHg 61%
    20:00 +17°C° 0.3 mm 4 mps 554 mmHg 69%
    21:00 +17°C° 0.1 mm 3 mps 554 mmHg 70%
    22:00 +16°C° 0.1 mm 3 mps 554 mmHg 71%
    23:00 +16°C° 0.1 mm 3 mps 554 mmHg 73%

    30 September, Sunday

    Time Temperature Precipitation Wind Pressure Humidity
    00:00 +15°C° 0 mm 2 mps 554 mmHg 72%
    01:00 +15°C° 0 mm 2 mps 553 mmHg 72%
    02:00 +15°C° 0 mm 2 mps 553 mmHg 72%
    03:00 +14°C° 0 mm 2 mps 553 mmHg 72%
    04:00 +14°C° 0 mm 2 mps 552 mmHg 73%
    05:00 +13°C° 0 mm 2 mps 552 mmHg 73%
    06:00 +15°C° 0 mm 1 mps 553 mmHg 63%
    07:00 +18°C° 0 mm 1 mps 554 mmHg 53%
    08:00 +19°C° 0 mm 1 mps 556 mmHg 42%
    09:00 +21°C° 0 mm 1 mps 556 mmHg 37%
    10:00 +23°C° 0 mm 2 mps 557 mmHg 32%
    11:00 +24°C° 0 mm 2 mps 557 mmHg 27%
    12:00 +25°C° 0.1 mm 3 mps 557 mmHg 29%
    13:00 +25°C° 0.1 mm 3 mps 556 mmHg 31%
    14:00 +26°C° 0.1 mm 4 mps 556 mmHg 34%
    15:00 +25°C° 0.6 mm 4 mps 555 mmHg 38%
    16:00 +23°C° 0.6 mm 4 mps 554 mmHg 43%
    17:00 +22°C° 0.6 mm 5 mps 554 mmHg 48%
    18:00 +21°C° 0.4 mm 4 mps 554 mmHg 55%
    19:00 +19°C° 0.4 mm 4 mps 554 mmHg 62%
    20:00 +18°C° 0.4 mm 3 mps 553 mmHg 68%
    21:00 +18°C° 0.1 mm 3 mps 554 mmHg 69%
    22:00 +17°C° 0.1 mm 3 mps 554 mmHg 70%
    23:00 +17°C° 0.1 mm 2 mps 554 mmHg 72%
    Show more